Home   Weather   Easter Island   Past weeks

Flag for Chile Past Weather in Easter Island, Chile — Yesterday and Last 2 Weeks

Now
61 °F

Passing clouds.


Feels Like: 61 °F
Forecast: 60 / 68 °F
Wind: 6 mph from Southeast

Location: Isla De Pascua

Current Time: Sep 28, 2016 at 12:19:38 AM

Latest Report: Sep 28, 2016 at 12:00 AM


Visibility: N/A

Pressure: 30.21 "Hg

Humidity: 55%

Dew Point: 45 °F

Location of Easter IslandLocation

Past Weather in Easter Island — Graph

°F

Easter Island Temperature Yesterday

Maximum temperature yesterday: 66 °F (at 2:00 PM)
Minimum temperature yesterday: 59 °F (at 5:00 AM)
Average temperature yesterday: 62 °F

High & Low Weather Summary for the Past Weeks

 TemperatureHumidityPressure
High73 °F (Sep 14, 1:00 PM)100% (Sep 15, 8:00 AM)30.33 "Hg (Sep 15, 8:00 AM)
Low50 °F (Sep 22, 5:00 AM)43% (Sep 26, 3:00 PM)29.89 "Hg (Sep 16, 4:00 PM)
Average64 °F71%30.13 "Hg
* Reported Sep 12 11:00 PM — Sep 27 11:00 PM, Easter Island, Weather by CustomWeather, © 2016

Note: Actual official high and low records may vary slightly from our data, if they occured in-between our weather recording intervals... More about our weather records

Advertising

Easter Island Weather History for the Previous 24 Hours

Scroll right to see more
 ConditionsComfort  
Time TempWeatherWind HumidityBarometerVisibility
11:00 PM
Tue, Sep 27
61 °FPassing clouds.5 mph55%30.24 "HgN/A
10:00 PM59 °FPassing clouds.5 mph68%30.21 "HgN/A
9:00 PM61 °FBroken clouds.5 mph59%30.18 "HgN/A
8:00 PM63 °FPartly sunny.8 mph56%30.18 "HgN/A
7:00 PM63 °FBroken clouds.12 mph56%30.15 "HgN/A
6:00 PM64 °FPartly sunny.13 mph52%30.15 "HgN/A
5:00 PM64 °FScattered clouds.14 mph56%30.18 "HgN/A
4:00 PM66 °FBroken clouds.15 mph52%30.18 "HgN/A
3:00 PM64 °FBroken clouds.15 mph56%30.21 "HgN/A
2:00 PM66 °FPartly sunny.15 mph49%30.24 "HgN/A
1:00 PM64 °FBroken clouds.15 mph49%30.24 "HgN/A
12:00 PM64 °FPartly sunny.15 mph49%30.27 "HgN/A
11:00 AM63 °FPartly sunny.10 mph52%30.27 "HgN/A
10:00 AM61 °FPartly sunny.16 mph55%30.24 "HgN/A
9:00 AM59 °FMore clouds than sun.15 mph63%30.24 "HgN/A
8:00 AM59 °FPartly cloudy.14 mph68%30.24 "HgN/A
7:00 AM61 °FPartly cloudy.15 mph59%30.24 "HgN/A
6:00 AM59 °FPartly cloudy.7 mph63%30.21 "HgN/A
5:00 AM59 °FPartly cloudy.16 mph68%30.24 "HgN/A
4:00 AM61 °FPartly cloudy.13 mph55%30.27 "HgN/A
3:00 AM61 °FPartly cloudy.9 mph52%30.27 "HgN/A
2:00 AM61 °FPartly cloudy.16 mph52%30.30 "HgN/A
1:00 AM61 °FPartly cloudy.18 mph48%30.30 "HgN/A
12:00 AM61 °FPartly cloudy.15 mph48%30.30 "HgN/A
Weather by CustomWeather, © 2016

See weather overviewHow to use our weather pages